Location: Shades State Park
(39.9310°N, 87.0690°W)
Time: 11:01:50
(UTC-04:00)

ISS - Visible Passes

Search period start: 30 April 2016 00:00
Search period end: 10 May 2016 00:00
Orbit: 402 x 405 km, 51.6° (Epoch: 30 April)

Date Brightness Start Highest point End Pass type
(mag) Time Alt. Az. Time Alt. Az. Time Alt. Az.
07 May -0.5 05:25:38 10° SE 05:26:29 11° SE 05:27:19 10° ESE visible
08 May -2.8 06:06:48 10° SW 06:09:59 53° SE 06:13:11 10° ENE visible
09 May -1.7 05:15:53 17° S 05:17:33 26° SE 05:20:21 10° ENE visible
